This demonstration page uses our WeatherBlox Daily Observations layout. Learn more.

Left ArrowRight Arrow

53.62937, 11.41316

Hourly Observations for August 26, 2021

Temp ( °F °C ) Dew Point ( °F °C ) Humidity (%) Winds ( mph kmh ) Pressure ( in mb ) Visibility ( mi km ) Precip ( " mm )
5:50 am 05:50 Mostly Clear 54 12 54 12 100 100 SW 3 6 29.80 1009 7 11 N/A
6:20 am 06:20 Mostly Sunny 54 12 54 12 100 100 WSW 3 6 29.80 1009 7 11 N/A
6:50 am 06:50 Mostly Sunny 54 12 54 12 100 100 SW 5 7 29.80 1009 7 11 N/A
7:20 am 07:20 Mostly Sunny 54 12 54 12 100 100 VRB 2 4 29.80 1009 7 11 N/A
7:50 am 07:50 Mostly Sunny 55 13 54 12 94 94 WSW 3 6 29.80 1009 7 11 N/A
8:20 am 08:20 Mostly Sunny 55 13 55 13 100 100 WSW 3 6 29.80 1009 7 11 N/A
8:50 am 08:50 Mostly Sunny 57 14 55 13 94 94 SW 3 6 29.80 1009 7 11 N/A
9:20 am 09:20 Partly Cloudy 61 16 55 13 83 83 WSW 5 7 29.83 1010 30 48 N/A
9:50 am 09:50 Partly Cloudy 63 17 52 11 68 68 VRB 5 7 29.82 1010 30 48 N/A
10:20 am 10:20 Partly Cloudy 63 17 50 10 64 64 VRB 5 7 29.82 1010 30 48 N/A
10:50 am 10:50 Partly Cloudy 63 17 50 10 64 64 VRB 3 6 29.82 1010 30 48 N/A
11:20 am 11:20 Partly Cloudy 63 17 48 9 59 59 NNW 14 22 29.82 1010 30 48 N/A
11:50 am 11:50 Partly Cloudy 63 17 46 8 56 56 VRB 5 7 29.82 1010 30 48 N/A
12:20 pm 12:20 Partly Cloudy 63 17 48 9 59 59 NW 14 22 29.82 1010 30 48 N/A
12:50 pm 12:50 Partly Cloudy with Light Showers 61 16 48 9 63 63 VRB 3 6 29.83 1010 30 48 N/A
1:20 pm 13:20 Partly Cloudy 61 16 50 10 68 68 N 9 15 29.85 1011 30 48 N/A
1:50 pm 13:50 Partly Cloudy 59 15 50 10 72 72 N 9 15 29.85 1011 30 48 N/A
2:20 pm 14:20 Mostly Sunny 59 15 50 10 72 72 N 13 20 29.85 1011 30 48 N/A
2:50 pm 14:50 Mostly Sunny 61 16 48 9 63 63 NNW 14 22 29.85 1011 30 48 N/A
3:20 pm 15:20 Mostly Sunny 61 16 50 10 68 68 N 12 19 29.85 1011 30 48 N/A
3:50 pm 15:50 Partly Cloudy 61 16 50 10 68 68 NNW 12 19 29.85 1011 30 48 N/A
4:20 pm 16:20 Mostly Sunny 61 16 50 10 68 68 NNW 15 24 29.85 1011 30 48 N/A
4:50 pm 16:50 Partly Cloudy 61 16 50 10 68 68 NNW 13 20 29.85 1011 30 48 N/A
5:20 pm 17:20 Partly Cloudy 59 15 50 10 72 72 NNW 16 26 29.85 1011 30 48 N/A
5:50 pm 17:50 Partly Cloudy 59 15 50 10 72 72 VRB 6 9 29.85 1011 30 48 N/A
6:20 pm 18:20 Partly Cloudy 59 15 50 10 72 72 NNW 15 24 29.85 1011 30 48 N/A
6:50 pm 18:50 Partly Cloudy 59 15 50 10 72 72 VRB 6 9 29.85 1011 30 48 N/A
7:20 pm 19:20 Mostly Cloudy 59 15 50 10 72 72 NNW 13 20 29.85 1011 30 48 N/A
7:50 pm 19:50 Mostly Cloudy 57 14 52 11 82 82 NNW 14 22 29.86 1011 30 48 N/A
8:20 pm 20:20 Mostly Cloudy with Showers Nearby 57 14 52 11 82 82 VRB 7 11 29.86 1011 4 6 N/A
8:50 pm 20:50 Mostly Cloudy 55 13 54 12 94 94 VRB 6 9 29.86 1011 30 48 N/A
9:20 pm 21:20 Mostly Cloudy 55 13 54 12 94 94 WSW 6 9 29.86 1011 30 48 N/A
9:50 pm 21:50 Mostly Cloudy with Light Showers 55 13 54 12 94 94 WSW 5 7 29.86 1011 4 7 N/A

Powered by AerisWeather